Time,TemperatureF,DewpointF,PressureIn,WindDirection,WindDirectionDegrees,WindSpeedMPH,WindSpeedGustMPH,Humidity,HourlyPrecipIn,Conditions,Clouds,dailyrainin,SolarRadiationWatts/m^2,SoftwareType,DateUTC
2013-08-27 00:00:00,57.6,46.0,29.78,South,174,2.0,-999.0,66,-99.99,,,0.00,0,weatherlink.com 1.10,2013-08-27 07:00:00,
2013-08-27 00:15:00,56.8,47.0,29.78,South,174,0.0,-999.0,70,-99.99,,,0.00,0,weatherlink.com 1.10,2013-08-27 07:15:00,
2013-08-27 00:30:00,56.7,48.0,29.78,South,174,0.0,-999.0,72,-99.99,,,0.00,0,weatherlink.com 1.10,2013-08-27 07:30:00,
2013-08-27 00:45:00,56.1,47.0,29.78,South,174,5.0,-999.0,71,-99.99,,,0.00,0,weatherlink.com 1.10,2013-08-27 07:45:00,
2013-08-27 01:00:00,55.0,46.0,29.78,South,175,1.0,-999.0,73,-99.99,,,0.00,0,weatherlink.com 1.10,2013-08-27 08:00:00,
2013-08-27 01:15:00,56.5,47.0,29.78,South,175,6.0,-999.0,71,-99.99,,,0.00,0,weatherlink.com 1.10,2013-08-27 08:15:00,
2013-08-27 01:30:00,55.5,47.0,29.78,SW,221,6.0,-999.0,72,-99.99,,,0.00,0,weatherlink.com 1.10,2013-08-27 08:30:00,
2013-08-27 01:45:00,55.6,47.0,29.78,SW,234,5.0,-999.0,74,-99.99,,,0.00,0,weatherlink.com 1.10,2013-08-27 08:45:00,
2013-08-27 02:00:00,55.6,47.0,29.78,SW,234,3.0,-999.0,74,-99.99,,,0.00,0,weatherlink.com 1.10,2013-08-27 09:00:00,
2013-08-27 02:15:00,54.8,47.0,29.77,SW,234,2.0,-999.0,75,-99.99,,,0.00,0,weatherlink.com 1.10,2013-08-27 09:15:00,
2013-08-27 02:30:00,53.8,46.0,29.78,SW,234,4.0,-999.0,74,-99.99,,,0.00,0,weatherlink.com 1.10,2013-08-27 09:30:00,
2013-08-27 02:45:00,54.1,46.0,29.78,SW,234,6.0,-999.0,74,-99.99,,,0.00,0,weatherlink.com 1.10,2013-08-27 09:45:00,
2013-08-27 03:00:00,54.6,46.0,29.77,SW,234,5.0,-999.0,72,-99.99,,,0.00,0,weatherlink.com 1.10,2013-08-27 10:00:00,
2013-08-27 03:15:00,54.4,47.0,29.78,SW,234,3.0,-999.0,75,-99.99,,,0.00,0,weatherlink.com 1.10,2013-08-27 10:15:00,
2013-08-27 03:30:00,56.6,48.0,29.77,SW,234,3.0,-999.0,72,-99.99,,,0.00,0,weatherlink.com 1.10,2013-08-27 10:30:00,
2013-08-27 03:45:00,57.1,47.0,29.77,SW,234,3.0,-999.0,70,-99.99,,,0.00,0,weatherlink.com 1.10,2013-08-27 10:45:00,
2013-08-27 04:00:00,56.5,47.0,29.77,SW,234,2.0,-999.0,71,-99.99,,,0.00,0,weatherlink.com 1.10,2013-08-27 11:00:00,
2013-08-27 04:16:00,55.1,46.0,29.78,SW,234,5.0,-999.0,71,-99.99,,,0.00,0,weatherlink.com 1.10,2013-08-27 11:16:00,
2013-08-27 04:30:00,53.6,46.0,29.78,SW,236,4.0,-999.0,74,-99.99,,,0.00,0,weatherlink.com 1.10,2013-08-27 11:30:00,
2013-08-27 04:45:00,53.9,47.0,29.78,SW,236,3.0,-999.0,76,-99.99,,,0.00,0,weatherlink.com 1.10,2013-08-27 11:45:00,
2013-08-27 05:00:00,54.6,46.0,29.78,SW,236,1.0,-999.0,74,-99.99,,,0.00,0,weatherlink.com 1.10,2013-08-27 12:00:00,
2013-08-27 05:15:00,52.7,45.0,29.78,SW,236,4.0,-999.0,76,-99.99,,,0.00,0,weatherlink.com 1.10,2013-08-27 12:15:00,
2013-08-27 05:30:00,53.3,46.0,29.78,SW,236,4.0,-999.0,77,-99.99,,,0.00,0,weatherlink.com 1.10,2013-08-27 12:30:00,
2013-08-27 05:45:00,51.9,46.0,29.79,SW,236,5.0,-999.0,79,-99.99,,,0.00,0,weatherlink.com 1.10,2013-08-27 12:45:00,
2013-08-27 06:00:00,50.7,45.0,29.79,SW,236,5.0,-999.0,80,-99.99,,,0.00,0,weatherlink.com 1.10,2013-08-27 13:00:00,
2013-08-27 06:15:00,50.9,45.0,29.79,SW,236,2.0,-999.0,81,-99.99,,,0.00,0,weatherlink.com 1.10,2013-08-27 13:15:00,
2013-08-27 06:30:00,50.9,46.0,29.79,West,261,6.0,-999.0,83,-99.99,,,0.00,9,weatherlink.com 1.10,2013-08-27 13:30:00,
2013-08-27 06:45:00,52.1,46.0,29.79,West,261,4.0,-999.0,81,-99.99,,,0.00,28,weatherlink.com 1.10,2013-08-27 13:45:00,
2013-08-27 07:00:00,53.3,47.0,29.79,West,263,4.0,-999.0,80,-99.99,,,0.00,62,weatherlink.com 1.10,2013-08-27 14:00:00,
2013-08-27 07:15:00,54.0,47.0,29.80,West,279,2.0,-999.0,78,-99.99,,,0.00,114,weatherlink.com 1.10,2013-08-27 14:15:00,
2013-08-27 07:30:00,54.7,48.0,29.79,WNW,292,2.0,-999.0,77,-99.99,,,0.00,162,weatherlink.com 1.10,2013-08-27 14:30:00,
2013-08-27 07:45:00,55.8,48.0,29.79,WNW,300,4.0,-999.0,75,-99.99,,,0.00,209,weatherlink.com 1.10,2013-08-27 14:45:00,
2013-08-27 08:00:00,56.4,49.0,29.79,NW,305,1.0,-999.0,75,-99.99,,,0.00,253,weatherlink.com 1.10,2013-08-27 15:00:00,
2013-08-27 08:15:00,57.0,49.0,29.79,NW,315,0.0,-999.0,74,-99.99,,,0.00,302,weatherlink.com 1.10,2013-08-27 15:15:00,
2013-08-27 08:30:00,58.0,49.0,29.80,NNW,340,4.0,-999.0,71,-99.99,,,0.00,350,weatherlink.com 1.10,2013-08-27 15:30:00,
2013-08-27 08:45:00,59.3,49.0,29.79,NNW,343,0.0,-999.0,69,-99.99,,,0.00,394,weatherlink.com 1.10,2013-08-27 15:45:00,
2013-08-27 09:00:00,58.4,49.0,29.79,NNW,338,5.0,-999.0,70,-99.99,,,0.00,439,weatherlink.com 1.10,2013-08-27 16:00:00,
2013-08-27 09:15:00,59.9,49.0,29.79,NNW,340,2.0,-999.0,67,-99.99,,,0.00,480,weatherlink.com 1.10,2013-08-27 16:15:00,
2013-08-27 09:30:00,60.4,49.0,29.78,NNW,338,0.0,-999.0,66,-99.99,,,0.00,522,weatherlink.com 1.10,2013-08-27 16:30:00,
2013-08-27 09:45:00,60.7,49.0,29.78,NNW,335,0.0,-999.0,65,-99.99,,,0.00,561,weatherlink.com 1.10,2013-08-27 16:45:00,
2013-08-27 10:00:00,62.3,50.0,29.77,NNE,21,3.0,-999.0,65,-99.99,,,0.00,601,weatherlink.com 1.10,2013-08-27 17:00:00,
2013-08-27 10:15:00,63.7,49.0,29.77,NE,45,3.0,-999.0,60,-99.99,,,0.00,636,weatherlink.com 1.10,2013-08-27 17:15:00,
2013-08-27 10:30:00,64.7,49.0,29.76,NE,55,0.0,-999.0,57,-99.99,,,0.00,671,weatherlink.com 1.10,2013-08-27 17:30:00,
2013-08-27 10:45:00,66.2,49.0,29.76,NE,55,0.0,-999.0,55,-99.99,,,0.00,703,weatherlink.com 1.10,2013-08-27 17:45:00,
2013-08-27 11:00:00,66.8,51.0,29.75,NE,53,6.0,-999.0,57,-99.99,,,0.00,728,weatherlink.com 1.10,2013-08-27 18:00:00,
2013-08-27 11:15:00,68.5,52.0,29.75,East,84,2.0,-999.0,55,-99.99,,,0.00,754,weatherlink.com 1.10,2013-08-27 18:15:00,
2013-08-27 11:30:00,68.5,51.0,29.74,ENE,57,8.0,-999.0,54,-99.99,,,0.00,765,weatherlink.com 1.10,2013-08-27 18:30:00,
2013-08-27 11:45:00,69.4,49.0,29.73,East,94,5.0,-999.0,49,-99.99,,,0.00,756,weatherlink.com 1.10,2013-08-27 18:45:00,
2013-08-27 12:00:00,70.5,49.0,29.72,ESE,111,6.0,-999.0,47,-99.99,,,0.00,805,weatherlink.com 1.10,2013-08-27 19:00:00,
2013-08-27 12:15:00,71.8,50.0,29.71,ENE,69,4.0,-999.0,46,-99.99,,,0.00,814,weatherlink.com 1.10,2013-08-27 19:15:00,
2013-08-27 12:30:00,73.2,49.0,29.70,NNE,22,5.0,-999.0,42,-99.99,,,0.00,831,weatherlink.com 1.10,2013-08-27 19:30:00,
2013-08-27 12:45:00,74.8,49.0,29.70,ESE,118,1.0,-999.0,41,-99.99,,,0.00,831,weatherlink.com 1.10,2013-08-27 19:45:00,
2013-08-27 13:00:00,75.4,47.0,29.69,ESE,109,0.0,-999.0,37,-99.99,,,0.00,898,weatherlink.com 1.10,2013-08-27 20:00:00,
2013-08-27 13:15:00,75.9,47.0,29.68,NE,40,9.0,-999.0,36,-99.99,,,0.00,861,weatherlink.com 1.10,2013-08-27 20:15:00,
2013-08-27 13:30:00,76.7,47.0,29.68,East,94,4.0,-999.0,35,-99.99,,,0.00,854,weatherlink.com 1.10,2013-08-27 20:30:00,
2013-08-27 13:45:00,78.6,43.0,29.68,South,173,10.0,-999.0,28,-99.99,,,0.00,858,weatherlink.com 1.10,2013-08-27 20:45:00,
2013-08-27 14:00:00,79.2,43.0,29.67,East,80,1.0,-999.0,28,-99.99,,,0.00,814,weatherlink.com 1.10,2013-08-27 21:00:00,
2013-08-27 14:15:00,78.5,46.0,29.67,NE,34,3.0,-999.0,32,-99.99,,,0.00,847,weatherlink.com 1.10,2013-08-27 21:15:00,
2013-08-27 14:45:00,79.6,46.0,29.66,NNW,327,0.0,-999.0,31,-99.99,,,0.00,188,weatherlink.com 1.10,2013-08-27 21:45:00,
2013-08-27 15:00:00,77.3,46.0,29.65,North,350,11.0,-999.0,33,-99.99,,,0.00,858,weatherlink.com 1.10,2013-08-27 22:00:00,
2013-08-27 15:15:00,79.1,46.0,29.64,ENE,71,2.0,-999.0,31,-99.99,,,0.00,647,weatherlink.com 1.10,2013-08-27 22:15:00,
2013-08-27 15:30:00,78.5,45.0,29.64,North,360,10.0,-999.0,31,-99.99,,,0.00,220,weatherlink.com 1.10,2013-08-27 22:30:00,
2013-08-27 15:45:00,78.6,47.0,29.63,North,355,8.0,-999.0,33,-99.99,,,0.00,285,weatherlink.com 1.10,2013-08-27 22:45:00,
2013-08-27 16:00:00,76.9,48.0,29.64,NNW,338,11.0,-999.0,36,-99.99,,,0.00,712,weatherlink.com 1.10,2013-08-27 23:00:00,
2013-08-27 16:15:00,76.3,47.0,29.64,NNW,339,10.0,-999.0,35,-99.99,,,0.00,109,weatherlink.com 1.10,2013-08-27 23:15:00,
2013-08-27 16:30:00,77.1,47.0,29.63,North,355,5.0,-999.0,34,-99.99,,,0.00,88,weatherlink.com 1.10,2013-08-27 23:30:00,
2013-08-27 16:45:00,78.9,47.0,29.62,North,360,7.0,-999.0,32,-99.99,,,0.00,487,weatherlink.com 1.10,2013-08-27 23:45:00,
2013-08-27 17:00:00,79.4,46.0,29.62,NNW,331,1.0,-999.0,31,-99.99,,,0.00,443,weatherlink.com 1.10,2013-08-28 00:00:00,
2013-08-27 17:15:00,79.4,46.0,29.62,NW,321,16.0,-999.0,31,-99.99,,,0.00,396,weatherlink.com 1.10,2013-08-28 00:15:00,
2013-08-27 17:30:00,78.7,46.0,29.62,NW,315,7.0,-999.0,32,-99.99,,,0.00,348,weatherlink.com 1.10,2013-08-28 00:30:00,
2013-08-27 17:45:00,79.1,46.0,29.62,NNW,329,10.0,-999.0,31,-99.99,,,0.00,306,weatherlink.com 1.10,2013-08-28 00:45:00,
2013-08-27 18:00:00,78.4,47.0,29.62,NNW,347,13.0,-999.0,33,-99.99,,,0.00,251,weatherlink.com 1.10,2013-08-28 01:00:00,
2013-08-27 18:15:00,78.6,48.0,29.62,NNW,341,8.0,-999.0,34,-99.99,,,0.00,193,weatherlink.com 1.10,2013-08-28 01:15:00,
2013-08-27 18:30:00,76.1,51.0,29.62,NW,305,15.0,-999.0,41,-99.99,,,0.00,148,weatherlink.com 1.10,2013-08-28 01:30:00,
2013-08-27 18:45:00,75.6,51.0,29.61,NNW,329,11.0,-999.0,43,-99.99,,,0.00,95,weatherlink.com 1.10,2013-08-28 01:45:00,
2013-08-27 19:00:00,74.2,51.0,29.61,NNW,332,10.0,-999.0,45,-99.99,,,0.00,51,weatherlink.com 1.10,2013-08-28 02:00:00,
2013-08-27 19:15:00,73.3,52.0,29.62,NW,323,9.0,-999.0,47,-99.99,,,0.00,21,weatherlink.com 1.10,2013-08-28 02:15:00,
2013-08-27 19:30:00,71.6,53.0,29.62,NNW,340,9.0,-999.0,52,-99.99,,,0.00,12,weatherlink.com 1.10,2013-08-28 02:30:00,
2013-08-27 19:45:00,70.4,53.0,29.62,NNW,340,6.0,-999.0,54,-99.99,,,0.00,0,weatherlink.com 1.10,2013-08-28 02:45:00,
2013-08-27 20:00:00,69.3,53.0,29.62,NW,323,6.0,-999.0,56,-99.99,,,0.00,0,weatherlink.com 1.10,2013-08-28 03:00:00,
2013-08-27 20:15:00,68.3,53.0,29.63,NNW,334,3.0,-999.0,58,-99.99,,,0.00,0,weatherlink.com 1.10,2013-08-28 03:15:00,
2013-08-27 20:30:00,67.4,53.0,29.63,NNW,331,2.0,-999.0,60,-99.99,,,0.00,0,weatherlink.com 1.10,2013-08-28 03:30:00,
2013-08-27 20:45:00,66.6,53.0,29.64,NNW,331,0.0,-999.0,62,-99.99,,,0.00,0,weatherlink.com 1.10,2013-08-28 03:45:00,
2013-08-27 21:00:00,65.9,53.0,29.64,NNW,331,2.0,-999.0,63,-99.99,,,0.00,0,weatherlink.com 1.10,2013-08-28 04:00:00,
2013-08-27 21:15:00,64.8,53.0,29.64,NNW,332,1.0,-999.0,65,-99.99,,,0.00,0,weatherlink.com 1.10,2013-08-28 04:15:00,
2013-08-27 21:30:00,64.4,53.0,29.65,NNW,332,4.0,-999.0,66,-99.99,,,0.00,0,weatherlink.com 1.10,2013-08-28 04:30:00,
2013-08-27 21:45:00,64.2,53.0,29.65,WNW,296,6.0,-999.0,66,-99.99,,,0.00,0,weatherlink.com 1.10,2013-08-28 04:45:00,
2013-08-27 22:00:00,64.1,52.0,29.65,WNW,288,0.0,-999.0,66,-99.99,,,0.00,0,weatherlink.com 1.10,2013-08-28 05:00:00,
2013-08-27 22:15:00,63.8,52.0,29.65,WNW,288,3.0,-999.0,66,-99.99,,,0.00,0,weatherlink.com 1.10,2013-08-28 05:15:00,
2013-08-27 22:30:00,63.7,52.0,29.65,WNW,288,1.0,-999.0,66,-99.99,,,0.00,0,weatherlink.com 1.10,2013-08-28 05:30:00,
2013-08-27 22:45:00,63.9,51.0,29.65,WNW,288,0.0,-999.0,64,-99.99,,,0.00,0,weatherlink.com 1.10,2013-08-28 05:45:00,
2013-08-27 23:00:00,63.3,51.0,29.66,WNW,288,1.0,-999.0,65,-99.99,,,0.00,0,weatherlink.com 1.10,2013-08-28 06:00:00,
2013-08-27 23:15:00,62.7,52.0,29.66,WNW,289,3.0,-999.0,67,-99.99,,,0.00,0,weatherlink.com 1.10,2013-08-28 06:15:00,
2013-08-27 23:30:00,62.3,52.0,29.66,WNW,290,3.0,-999.0,68,-99.99,,,0.00,0,weatherlink.com 1.10,2013-08-28 06:30:00,
2013-08-27 23:45:00,60.6,51.0,29.65,West,281,5.0,-999.0,70,-99.99,,,0.00,0,weatherlink.com 1.10,2013-08-28 06:45:00,